Flag for Belgium Weather past 2 weeks in Ghent, Belgium

Now
62 °F

Scattered clouds.


Feels Like: 62 °F
Forecast: 58 / 66 °F
Wind: 3 mph from Southwest

Location: Munte

Current Time: Aug 29, 2014 at 11:11:41 AM

Latest Report: Aug 29, 2014 at 10:00 AM


Visibility: 11 mi

Pressure: 30.01 "Hg

Humidity: 80%

Dew point: 56 °F

Location of GhentLocation

Historic Weather in Ghent — Graph

°F

Ghent temperature yesterday

Maximum temperature yesterday: 71 °F (at 3:00 PM)
Minimum temperature yesterday: 58 °F (at 5:00 AM)
Average temperature yesterday: 63 °F

Past Weeks' High & Low Weather Summary

 TemperatureHumidityPressure
High71 °F (Aug 28, 3:00 PM)100% (Aug 26, 12:00 PM)30.16 "Hg (Aug 26, 12:00 PM)
Low48 °F (Aug 20, 4:00 AM)44% (Aug 21, 7:00 PM)29.60 "Hg (Aug 26, 3:00 AM)
Average58 °F82%29.93 "Hg
* Reported Aug 14 9:00 AM — Aug 29 9:00 AM, Ghent, Weather by CustomWeather, © 2014

Note: Actual official high and low records may vary slightly from our data, if they occured in-between our weather recording intervals... More about our weather records

Advertising

Ghent weather history for previous 24 hours

 ConditionsComfort  
Time TempWeatherWind HumidityBarometerVisibility
9:00 AM
Aug 29
60 °FScattered clouds.3 mph86%30.00 "Hg7 mi
8:00 AM59 °FPartly sunny.2 mph92%29.99 "Hg7 mi
7:00 AM59 °FPartly sunny.2 mph92%29.99 "Hg7 mi
6:00 AM59 °FPassing clouds.2 mph92%29.98 "Hg7 mi
5:00 AM59 °FCool.2 mph91%29.98 "Hg12 mi
4:00 AM60 °FCool.2 mph89%29.98 "Hg16 mi
3:00 AM60 °FDrizzle. Overcast.3 mph89%29.98 "Hg9 mi
2:00 AM59 °FCool.2 mph87%29.98 "Hg19 mi
1:00 AM59 °FCool.3 mph88%29.97 "Hg16 mi
12:00 AM58 °FCool.2 mph90%29.96 "Hg13 mi
11:00 PM
Aug 28
60 °FCool.2 mph85%29.97 "Hg17 mi
10:00 PM60 °FCool.2 mph83%29.96 "Hg19 mi
9:00 PM64 °FMild.3 mph74%29.96 "Hg22 mi
8:00 PM65 °FMild.2 mph77%29.94 "Hg18 mi
7:00 PM67 °FMild.3 mph78%29.93 "Hg19 mi
6:00 PM67 °FMild.2 mph86%29.93 "Hg14 mi
5:00 PM67 °FLow clouds.2 mph91%29.92 "Hg9 mi
4:00 PM67 °FLight rain. Overcast.5 mph91%29.92 "Hg3 mi
3:00 PM71 °FOvercast.3 mph76%29.92 "Hg16 mi
2:00 PM68 °FOvercast.3 mph82%29.93 "Hg16 mi
1:00 PM65 °FOvercast.5 mph86%29.93 "Hg16 mi
12:00 PM66 °FOvercast.3 mph86%29.93 "Hg16 mi
11:00 AM65 °FOvercast.5 mph85%29.93 "Hg16 mi
Weather by CustomWeather, © 2014

See weather overviewHow to use our weather pages